F4ELU-13 Weather Reports


time (UTC)temp
C
wind
direction
speed
KPH
gust
KPH
rain 1hr
cm
rain 24hr
cm
rain mn
cm
humidity
%
barometer
mb
20260506145403 11 297 3.2 11.3 0.46 0.61 0.61 95 1009.7
20260506144503 11 324 4.8 14.5 0.05 0.20 0.20 92 1009.6
20260506143603 12 299 3.2 11.3 0.00 0.15 0.15 85 1009.1
20260506142703 13 315 6.4 14.5 0.00 0.15 0.15 82 1009.1
20260506141803 15 202 8.0 17.7 0.00 0.15 0.15 76 1009.0
20260506140903 15 192 4.8 17.7 0.00 0.15 0.15 74 1008.7
20260506140003 16 201 4.8 17.7 0.00 0.15 0.15 72 1008.8
20260506135403 16 206 4.8 17.7 0.00 0.15 0.15 74 1008.8
20260506134503 16 201 11.3 17.7 0.00 0.15 0.15 73 1008.8
20260506133603 16 211 9.7 20.9 0.00 0.15 0.15 76 1008.8
20260506132703 15 209 9.7 14.5 0.00 0.15 0.15 80 1009.0
20260506131803 15 212 4.8 12.9 0.00 0.15 0.15 81 1009.1
20260506130903 14 198 8.0 14.5 0.00 0.15 0.15 82 1009.0
20260506130004 13 208 8.0 17.7 0.00 0.15 0.15 82 1009.1
20260506125403 14 198 11.3 17.7 0.00 0.15 0.15 81 1009.0
20260506124503 14 214 8.0 17.7 0.00 0.15 0.15 83 1009.0
20260506123603 14 203 8.0 17.7 0.00 0.15 0.15 82 1009.0
20260506122703 15 207 8.0 17.7 0.00 0.15 0.15 81 1009.0
20260506121803 15 197 6.4 12.9 0.00 0.15 0.15 84 1009.0
20260506120903 14 203 6.4 17.7 0.00 0.15 0.15 82 1009.1
20260506120003 15 206 9.7 17.7 0.00 0.15 0.15 83 1009.1
20260506115403 14 199 11.3 20.9 0.00 0.15 0.15 83 1009.0
20260506114503 14 204 12.9 17.7 0.00 0.15 0.15 83 1009.1
20260506113603 14 205 6.4 17.7 0.00 0.15 0.15 84 1009.2
20260506112703 14 201 4.8 17.7 0.00 0.15 0.15 83 1009.3
20260506111803 13 204 8.0 17.7 0.00 0.15 0.15 83 1009.3
20260506110903 13 201 8.0 14.5 0.00 0.15 0.15 86 1009.3
20260506110003 13 186 6.4 17.7 0.00 0.15 0.15 87 1009.4
20260506105403 13 193 6.4 17.7 0.00 0.15 0.15 87 1009.4
20260506104503 13 200 6.4 17.7 0.00 0.15 0.15 87 1009.3
20260506103603 13 202 8.0 17.7 0.00 0.15 0.15 89 1009.4
20260506102703 13 190 12.9 17.7 0.00 0.18 0.15 89 1009.4
20260506101803 12 199 8.0 14.5 0.00 0.18 0.15 91 1009.3
20260506100903 12 196 6.4 11.3 0.00 0.18 0.15 90 1009.3
20260506100003 12 197 3.2 14.5 0.00 0.18 0.15 89 1009.3
20260506095403 12 189 8.0 14.5 0.00 0.18 0.15 90 1009.3
20260506094503 12 203 3.2 11.3 0.00 0.18 0.15 92 1009.3
20260506093603 12 212 3.2 14.5 0.00 0.18 0.15 92 1009.1
20260506092703 12 177 4.8 14.5 0.00 0.18 0.15 93 1009.1
20260506091803 12 190 1.6 11.3 0.00 0.18 0.15 93 1009.0
20260506090903 12 198 6.4 11.3 0.00 0.18 0.15 94 1008.9
20260506090003 11 205 0.0 6.4 0.00 0.18 0.15 94 1008.9
20260506085403 11 202 3.2 9.7 0.00 0.18 0.15 95 1008.9
20260506084503 11 203 1.6 9.7 0.00 0.18 0.15 96 1008.7
20260506083603 11 187 0.0 9.7 0.00 0.18 0.15 96 1008.7
20260506082703 11 210 1.6 6.4 0.00 0.18 0.15 96 1008.7
20260506081803 11 187 0.0 6.4 0.00 0.18 0.15 97 1008.6
20260506080903 10 217 0.0 6.4 0.00 0.18 0.15 98 1008.5
20260506072703 10 170 1.6 6.4 0.00 0.18 0.15 99 1008.3
20260506071803 10 199 0.0 6.4 0.00 0.18 0.15 99 1008.3
20260506070903 10 180 0.0 3.2 0.00 0.18 0.15 99 1008.1
20260506061803 10 0 0.0 0.0 0.05 0.18 0.15 99 1007.9
20260506060903 10 0 0.0 0.0 0.10 0.18 0.15 99 1007.8
20260506050903 10 337 0.0 3.2 0.03 0.13 0.05 99 1007.6
20260506044503 10 225 0.0 3.2 0.00 0.10 0.03 99 1007.3
20260506043603 10 0 0.0 0.0 0.00 0.13 0.03 99 1007.3
20260506042703 10 0 0.0 0.0 0.00 0.18 0.03 99 1007.2
20260506041803 10 0 0.0 0.0 0.03 0.18 0.03 99 1007.2
20260506040903 10 0 0.0 0.0 0.03 0.18 0.03 99 1007.2
20260506040003 10 0 0.0 0.0 0.03 0.20 0.03 99 1007.2
20260506035403 10 0 0.0 0.0 0.03 0.20 0.03 99 1007.2
20260506034503 10 0 0.0 0.0 0.03 0.23 0.03 99 1007.2
20260506033603 10 0 0.0 0.0 0.03 0.23 0.03 99 1007.3
20260506032703 10 0 0.0 0.0 0.03 0.28 0.03 99 1007.4
20260506031803 10 0 0.0 0.0 0.00 0.23 0.00 99 1007.4
20260506030903 10 0 0.0 0.0 0.00 0.28 0.00 99 1007.4
20260506030003 10 0 0.0 0.0 0.00 0.28 0.00 99 1007.5
20260506025403 10 0 0.0 0.0 0.00 0.28 0.00 99 1007.5
20260506024503 10 0 0.0 0.0 0.00 0.28 0.00 99 1007.5
20260506023603 10 0 0.0 0.0 0.00 0.30 0.00 99 1007.5
20260506022703 10 0 0.0 0.0 0.00 0.30 0.00 99 1007.6
20260506021803 10 0 0.0 0.0 0.00 0.30 0.00 99 1007.7
20260506020903 10 0 0.0 0.0 0.00 0.30 0.00 99 1007.6
20260506020003 10 0 0.0 0.0 0.00 0.30 0.00 99 1007.7
20260506015403 10 0 0.0 0.0 0.00 0.30 0.00 99 1007.6
20260506014503 10 0 0.0 0.0 0.00 0.30 0.00 99 1007.8
20260506013603 10 0 0.0 0.0 0.00 0.30 0.00 99 1007.9
20260506012703 10 0 0.0 0.0 0.00 0.30 0.00 99 1007.9
20260506011803 10 0 0.0 0.0 0.00 0.33 0.00 98 1008.0
20260506010903 10 0 0.0 0.0 0.00 0.33 0.00 98 1008.0
20260506010003 10 0 0.0 0.0 0.00 0.33 0.00 98 1008.1
20260506005403 10 0 0.0 0.0 0.00 0.33 0.00 98 1008.1
20260506004503 10 0 0.0 0.0 0.00 0.33 0.00 98 1008.4
20260506003603 10 0 0.0 0.0 0.00 0.33 0.00 97 1008.5
20260506002703 10 0 0.0 0.0 0.00 0.33 0.00 98 1008.5
20260506001803 10 0 0.0 0.0 0.00 0.36 0.00 97 1008.5
20260506000903 10 0 0.0 0.0 0.00 0.36 0.00 97 1008.7
20260506000003 10 202 0.0 3.2 0.00 0.36 0.00 98 1008.9
20260505235403 10 0 0.0 0.0 0.00 0.38 0.00 99 1009.0
20260505234503 10 0 0.0 0.0 0.00 0.38 0.00 99 1009.0
20260505233603 10 0 0.0 0.0 0.00 0.43 0.00 99 1009.0
20260505232703 10 0 0.0 0.0 0.00 0.43 0.00 99 1009.1
20260505231803 10 0 0.0 0.0 0.00 0.43 0.00 99 1009.0
20260505230903 10 0 0.0 0.0 0.00 0.46 0.00 99 1009.0
20260505230003 10 0 0.0 0.0 0.00 0.51 0.00 99 1009.2
20260505225403 10 0 0.0 0.0 0.00 0.51 0.51 99 1009.3
20260505224503 9 0 0.0 0.0 0.00 0.51 0.51 99 1009.3
20260505223603 9 0 0.0 0.0 0.00 0.51 0.51 99 1009.2
20260505222703 9 0 0.0 0.0 0.00 0.51 0.51 99 1009.0
20260505221803 9 0 0.0 0.0 0.00 0.51 0.51 99 1009.1
20260505220903 9 0 0.0 0.0 0.00 0.51 0.51 99 1009.1
20260505220003 9 0 0.0 0.0 0.00 0.51 0.51 99 1009.3
20260505215403 9 0 0.0 0.0 0.00 0.51 0.51 99 1009.4
20260505214503 9 0 0.0 0.0 0.00 0.51 0.51 99 1009.5
20260505213603 9 0 0.0 0.0 0.00 0.51 0.51 99 1009.6
20260505212703 9 0 0.0 0.0 0.00 0.51 0.51 99 1009.8
20260505211803 9 0 0.0 0.0 0.00 0.51 0.51 99 1009.8
20260505210903 9 0 0.0 0.0 0.00 0.51 0.51 98 1009.7
20260505210003 10 0 0.0 0.0 0.00 0.51 0.51 97 1009.7
20260505205403 10 0 0.0 0.0 0.00 0.51 0.51 97 1009.8
20260505204503 10 0 0.0 0.0 0.00 0.51 0.51 97 1009.9
20260505203603 10 0 0.0 0.0 0.00 0.51 0.51 96 1010.1
20260505202703 10 0 0.0 0.0 0.00 0.51 0.51 97 1009.8
20260505201803 10 0 0.0 0.0 0.00 0.51 0.51 97 1009.7
20260505200903 10 0 0.0 0.0 0.00 0.51 0.51 97 1009.7
20260505200003 10 0 0.0 0.0 0.00 0.51 0.51 96 1009.3
20260505195403 10 0 0.0 0.0 0.00 0.51 0.51 96 1009.3
20260505194503 10 0 0.0 0.0 0.00 0.51 0.51 95 1009.1
20260505193603 10 0 0.0 0.0 0.00 0.51 0.51 94 1009.1
20260505192703 11 0 0.0 0.0 0.00 0.51 0.51 93 1009.1
20260505191803 11 0 0.0 0.0 0.00 0.51 0.51 92 1009.0
20260505190903 11 286 0.0 3.2 0.00 0.51 0.51 90 1008.7
20260505190004 11 0 0.0 0.0 0.00 0.51 0.51 91 1008.5
20260505185403 11 0 0.0 0.0 0.00 0.51 0.51 90 1008.5
20260505184503 12 337 0.0 3.2 0.00 0.51 0.51 89 1008.4
20260505183603 12 348 0.0 3.2 0.00 0.51 0.51 89 1008.1
20260505182703 12 320 0.0 3.2 0.00 0.51 0.51 87 1008.2
20260505181803 13 309 1.6 14.5 0.00 0.51 0.51 86 1008.2
20260505180903 13 311 6.4 14.5 0.00 0.51 0.51 84 1008.3
20260505180003 14 260 6.4 11.3 0.00 0.51 0.51 83 1008.3
20260505175403 14 202 3.2 6.4 0.00 0.51 0.51 92 1008.2
20260505174503 14 0 0.0 0.0 0.00 0.51 0.51 89 1007.9
20260505173603 15 0 0.0 0.0 0.00 0.51 0.51 91 1007.9
20260505172703 15 0 0.0 0.0 0.00 0.51 0.51 90 1007.9
20260505171803 15 0 0.0 0.0 0.00 0.51 0.51 90 1007.8
20260505170903 16 0 0.0 0.0 0.00 0.51 0.51 85 1007.9
20260505170003 15 0 0.0 0.0 0.00 0.51 0.51 90 1007.9
20260505165403 15 0 0.0 0.0 0.00 0.51 0.51 88 1008.0
20260505164503 15 90 0.0 3.2 0.00 0.51 0.51 88 1008.0
20260505163603 15 143 0.0 6.4 0.00 0.51 0.51 89 1008.1
20260505162703 15 121 1.6 9.7 0.00 0.51 0.51 87 1008.1
20260505161803 15 156 3.2 9.7 0.00 0.51 0.51 88 1008.2
20260505160903 15 162 3.2 6.4 0.00 0.51 0.51 91 1008.1
20260505152703 16 193 1.6 6.4 0.00 0.51 0.51 80 1007.9
20260505151803 17 229 1.6 9.7 0.00 0.51 0.51 77 1007.9
20260505150903 17 232 6.4 9.7 0.00 0.51 0.51 75 1007.9